Content
SEND FEEDBACK

Daily
Averages
Monthly
Summary
Philippines

QUEZON CITY, PHILIPPINES


Home > Asia > Philippines
Elevation: 46 meters     Latitude: 14 39N     Longitude: 121 03E

WEATHER
 
SELECT A DAY
Number of Records: 178,193;   Date Range: 7/1/96 - 11/27/14
 
SHARE

PRINT THIS DATA

[ ← Previous Day ]
WEATHER ALMANAC - 28 JUNE, 2013
[ Next Day → ]
[ °F ]   °C
We're sorry. There is no daily almanac available for Quezon City, Philippines on 28 June, 2013.
WEATHER BY HOUR - 28 JUNE, 2013
[ °F ]   °C
Local TimeTemperatureDewpointHumidityBarometerVisibilityWind DirectionWind SpeedGust SpeedPrecipitationEventsConditions
1:00 AM28 °C26 °C89 %1010.2 hPa9 kmESE (120°)7.4 km/hOvercast
2:00 AM27.8 °C25.6 °C85 %1009.1 hPa9.7 kmEast (100°)7.2 km/hHaze
2:00 AM28 °C26 °C89 %1009.1 hPa9 kmEast (90°)5.6 km/hOvercast
3:00 AM27 °C26 °C94 %1009.1 hPa9 kmNE (50°)9.3 km/hOvercast
4:00 AM27 °C25 °C89 %1009.1 hPa9 kmNE (40°)5.6 km/hScattered Clouds
5:00 AM27.2 °C25.6 °C87 %1008.8 hPa9.7 kmENE (60°)7.2 km/hHaze
5:00 AM27 °C26 °C94 %1008.1 hPa9 kmENE (70°)5.6 km/hScattered Clouds
6:00 AM27 °C25 °C89 %1009.1 hPa8 kmVariable1.9 km/hScattered Clouds
7:00 AM29 °C25 °C79 %1009.1 hPa10 kmSSW (200°)1.9 km/hPartly Cloudy
8:00 AM30.6 °C25 °C64 %1009.5 hPa9.7 kmEast (100°)3.5 km/hHaze
8:00 AM30 °C25 °C74 %1009.1 hPa10 kmEast (100°)3.7 km/hPartly Cloudy
9:00 AM30 °C25 °C74 %1009.1 hPa10 kmWNW (290°)1.9 km/hPartly Cloudy
10:00 AM30 °C25 °C74 %1009.1 hPa10 kmWest (280°)13 km/hScattered Clouds
11:00 AM30.6 °C25 °C65 %1009.1 hPa9.7 kmWest (280°)3.5 km/hHaze
11:00 AM31 °C25 °C70 %1009.1 hPa10 kmWest (280°)7.4 km/hPartly Cloudy
12:00 PM32 °C25 °C66 %1009.1 hPa10 kmWNW (290°)3.7 km/hPartly Cloudy
1:00 PM32 °C26 °C70 %1008.1 hPa10 kmNW (310°)3.7 km/hScattered Clouds
2:00 PM32.2 °C26.1 °C63 %1007.5 hPa9.7 kmWest (280°)10.8 km/hHaze
2:00 PM33 °C26 °C66 %1007.1 hPa10 kmWest (280°)13 km/hScattered Clouds
3:00 PM32 °C24 °C62 %1007.1 hPa10 kmWest (260°)20.4 km/hPartly Cloudy
4:00 PM31 °C26 °C75 %1006.1 hPa10 kmWest (260°)18.5 km/hThunderstormThunderstorm
5:00 PM30.6 °C25.6 °C69 %1006.4 hPa9.7 kmWest (270°)14.3 km/hHaze
5:00 PM31 °C26 °C75 %1006.1 hPa10 kmWest (270°)13 km/hScattered Clouds
6:00 PM30 °C26 °C79 %1006.1 hPa10 kmWest (260°)16.7 km/hMostly Cloudy
7:00 PM30 °C26 °C79 %1007.1 hPa10 kmWSW (250°)13 km/hPartly Cloudy
8:00 PM29.4 °C25 °C72 %1008.1 hPa9.7 kmSW (220°)7.2 km/hHaze
8:00 PM30 °C25 °C74 %1007.1 hPa10 kmSW (220°)7.4 km/hPartly Cloudy
9:00 PM29 °C25 °C79 %1008.1 hPa10 kmSW (220°)7.4 km/hMostly Cloudy
10:00 PM29 °C25 °C79 %1009.1 hPa10 kmSouth (190°)5.6 km/hScattered Clouds
11:00 PM28.9 °C25 °C74 %1009.8 hPa9.7 kmSouth (180°)7.2 km/hHaze
11:00 PM29 °C25 °C79 %1009.1 hPa10 kmSouth (180°)5.6 km/hScattered Clouds
Hourly data recorded from RPLL, located 0 kilometers away from Quezon City, Philippines







STORIES FROM OUR PARTNERS